Location: *
(47.6569°N, 7.4256°E)
Time: 12:15:48
(UTC+00:00)

Okean 3 - Pass Details

Date: 14 December 2019
Orbit: 577 x 600 km, 82.5° (Epoch: 26 January)

Event Time Altitude Azimuth Distance (km) Brightness Sun altitude
Rises 17:23:32 0° 168° (SSE) 2,789 7.0 -16.7°
Reaches altitude 10° 17:25:48 10° 161° (SSE) 1,892 6.0 -17.1°
Maximum altitude 17:29:41 39° 92° (E) 883 3.8 -17.7°
Enters shadow 17:29:58 38° 82° (E) 891 3.8 -17.8°
